When you browse on this site, cookies collect data to enhance your experience and personalize the content and advertising you see.
Visit our Privacy Policy to learn more. By continuing to use the site, you agree to this use of cookies and data.
  • In United Kingdom
  • List of Countries
  • For 7 days
  • Water Temperature
  • Satellite Maps
  • Weather Map
  • Weather Widgets
  • user-avatar
    Login

    Hourly Weather Daugavpils

    Today, 19 April, Friday

    Time Temperature Precipitation Wind Pressure Humidity
    00:00 +7°C° 0 mm 2 mps 763 mmHg 66%
    01:00 +7°C° 0 mm 1 mps 763 mmHg 70%
    02:00 +7°C° 0 mm 1 mps 764 mmHg 73%
    03:00 +6°C° 0 mm 1 mps 764 mmHg 74%
    04:00 +6°C° 0 mm 1 mps 764 mmHg 74%
    05:00 +6°C° 0 mm 1 mps 764 mmHg 75%
    06:00 +7°C° 0 mm 1 mps 764 mmHg 68%
    07:00 +9°C° 0 mm 1 mps 764 mmHg 61%
    08:00 +11°C° 0 mm 1 mps 764 mmHg 53%
    09:00 +13°C° 0 mm 1 mps 764 mmHg 47%
    10:00 +14°C° 0 mm 2 mps 764 mmHg 42%
    11:00 +16°C° 0 mm 2 mps 764 mmHg 36%
    12:00 +16°C° 0 mm 2 mps 764 mmHg 34%
    13:00 +17°C° 0 mm 2 mps 763 mmHg 33%
    14:00 +18°C° 0 mm 2 mps 763 mmHg 31%
    15:00 +17°C° 0 mm 2 mps 763 mmHg 32%
    16:00 +17°C° 0 mm 2 mps 762 mmHg 32%
    17:00 +17°C° 0 mm 2 mps 762 mmHg 33%
    18:00 +15°C° 0 mm 1 mps 762 mmHg 39%
    19:00 +13°C° 0 mm 1 mps 762 mmHg 44%
    20:00 +10°C° 0 mm 0 mps 762 mmHg 50%
    21:00 +10°C° 0 mm 0 mps 762 mmHg 53%
    22:00 +10°C° 0 mm 1 mps 762 mmHg 57%
    23:00 +9°C° 0 mm 1 mps 761 mmHg 60%

    Tomorrow, 20 April, Saturday

    Time Temperature Precipitation Wind Pressure Humidity
    00:00 +9°C° 0 mm 1 mps 761 mmHg 63%
    01:00 +9°C° 0 mm 1 mps 761 mmHg 65%
    02:00 +8°C° 0 mm 1 mps 761 mmHg 68%
    03:00 +8°C° 0 mm 1 mps 761 mmHg 69%
    04:00 +8°C° 0 mm 1 mps 761 mmHg 70%
    05:00 +8°C° 0 mm 1 mps 760 mmHg 71%
    06:00 +9°C° 0 mm 1 mps 760 mmHg 67%
    07:00 +10°C° 0 mm 1 mps 760 mmHg 63%
    08:00 +11°C° 0 mm 1 mps 760 mmHg 59%
    09:00 +12°C° 0 mm 1 mps 760 mmHg 55%
    10:00 +13°C° 0 mm 1 mps 760 mmHg 50%
    11:00 +14°C° 0 mm 1 mps 759 mmHg 46%
    12:00 +14°C° 0 mm 2 mps 759 mmHg 44%
    13:00 +15°C° 0 mm 2 mps 759 mmHg 42%
    14:00 +15°C° 0 mm 2 mps 758 mmHg 41%
    15:00 +15°C° 0 mm 2 mps 758 mmHg 43%
    16:00 +15°C° 0 mm 2 mps 758 mmHg 44%
    17:00 +15°C° 0 mm 2 mps 758 mmHg 46%
    18:00 +13°C° 0.1 mm 2 mps 758 mmHg 54%
    19:00 +10°C° 0.1 mm 2 mps 758 mmHg 61%
    20:00 +8°C° 0.1 mm 2 mps 758 mmHg 68%
    21:00 +8°C° 0 mm 2 mps 758 mmHg 69%
    22:00 +7°C° 0 mm 2 mps 758 mmHg 70%
    23:00 +6°C° 0 mm 2 mps 758 mmHg 71%

    Day after tomorrow, 21 April, Sunday

    Time Temperature Precipitation Wind Pressure Humidity
    00:00 +5°C° 0 mm 2 mps 758 mmHg 74%
    01:00 +5°C° 0 mm 2 mps 758 mmHg 76%
    02:00 +5°C° 0 mm 1 mps 758 mmHg 78%
    03:00 +4°C° 0.1 mm 2 mps 757 mmHg 80%
    04:00 +3°C° 0.1 mm 2 mps 757 mmHg 82%
    05:00 +3°C° 0.1 mm 2 mps 757 mmHg 84%
    06:00 +5°C° 0 mm 2 mps 758 mmHg 78%
    07:00 +6°C° 0 mm 2 mps 758 mmHg 72%
    08:00 +8°C° 0 mm 3 mps 758 mmHg 65%
    09:00 +9°C° 0 mm 3 mps 758 mmHg 61%
    10:00 +11°C° 0 mm 3 mps 758 mmHg 56%
    11:00 +12°C° 0 mm 4 mps 758 mmHg 51%
    12:00 +13°C° 0.1 mm 4 mps 758 mmHg 53%
    13:00 +13°C° 0.1 mm 4 mps 758 mmHg 54%
    14:00 +13°C° 0.1 mm 4 mps 758 mmHg 56%
    15:00 +13°C° 0 mm 4 mps 758 mmHg 56%
    16:00 +14°C° 0 mm 3 mps 758 mmHg 55%
    17:00 +14°C° 0 mm 3 mps 758 mmHg 55%
    18:00 +12°C° 0 mm 3 mps 758 mmHg 61%
    19:00 +12°C° 0 mm 2 mps 759 mmHg 68%
    20:00 +9°C° 0 mm 2 mps 759 mmHg 74%
    21:00 +9°C° 0 mm 2 mps 760 mmHg 74%
    22:00 +8°C° 0 mm 2 mps 760 mmHg 74%
    23:00 +8°C° 0 mm 2 mps 760 mmHg 74%

    22 April, Monday

    Time Temperature Precipitation Wind Pressure Humidity
    00:00 +7°C° 0 mm 2 mps 761 mmHg 75%
    01:00 +6°C° 0 mm 2 mps 761 mmHg 75%
    02:00 +6°C° 0 mm 2 mps 761 mmHg 75%
    03:00 +5°C° 0 mm 2 mps 761 mmHg 75%
    04:00 +5°C° 0 mm 2 mps 761 mmHg 76%
    05:00 +4°C° 0 mm 2 mps 761 mmHg 76%
    06:00 +6°C° 0 mm 2 mps 762 mmHg 70%
    07:00 +8°C° 0 mm 3 mps 762 mmHg 64%
    08:00 +10°C° 0 mm 3 mps 762 mmHg 57%
    09:00 +11°C° 0 mm 3 mps 762 mmHg 54%
    10:00 +13°C° 0 mm 3 mps 762 mmHg 50%
    11:00 +14°C° 0 mm 4 mps 762 mmHg 46%
    12:00 +16°C° 0 mm 3 mps 762 mmHg 45%
    13:00 +16°C° 0 mm 3 mps 762 mmHg 43%
    14:00 +17°C° 0 mm 3 mps 762 mmHg 42%
    15:00 +17°C° 0 mm 3 mps 761 mmHg 43%
    16:00 +16°C° 0 mm 3 mps 761 mmHg 45%
    17:00 +16°C° 0 mm 2 mps 761 mmHg 46%
    18:00 +14°C° 0 mm 2 mps 761 mmHg 51%
    19:00 +13°C° 0 mm 2 mps 761 mmHg 55%
    20:00 +11°C° 0 mm 1 mps 762 mmHg 60%
    21:00 +11°C° 0 mm 1 mps 762 mmHg 61%
    22:00 +10°C° 0 mm 1 mps 762 mmHg 62%
    23:00 +9°C° 0 mm 1 mps 762 mmHg 64%

    23 April, Tuesday

    Time Temperature Precipitation Wind Pressure Humidity
    00:00 +8°C° 0 mm 1 mps 763 mmHg 66%
    01:00 +8°C° 0 mm 1 mps 763 mmHg 68%
    02:00 +7°C° 0 mm 1 mps 763 mmHg 70%
    03:00 +7°C° 0 mm 1 mps 763 mmHg 70%
    04:00 +7°C° 0 mm 1 mps 763 mmHg 71%
    05:00 +6°C° 0 mm 1 mps 763 mmHg 71%
    06:00 +7°C° 0 mm 2 mps 763 mmHg 65%
    07:00 +9°C° 0 mm 2 mps 763 mmHg 59%
    08:00 +12°C° 0 mm 2 mps 763 mmHg 54%
    09:00 +13°C° 0 mm 2 mps 763 mmHg 49%
    10:00 +13°C° 0 mm 3 mps 763 mmHg 44%
    11:00 +16°C° 0 mm 3 mps 763 mmHg 39%
    12:00 +16°C° 0 mm 3 mps 763 mmHg 39%
    13:00 +15°C° 0 mm 4 mps 762 mmHg 39%
    14:00 +17°C° 0 mm 4 mps 762 mmHg 39%
    15:00 +17°C° 0 mm 4 mps 762 mmHg 40%
    16:00 +15°C° 0 mm 4 mps 761 mmHg 41%
    17:00 +15°C° 0 mm 4 mps 761 mmHg 41%
    18:00 +14°C° 0 mm 3 mps 761 mmHg 48%
    19:00 +12°C° 0 mm 3 mps 761 mmHg 55%
    20:00 +10°C° 0 mm 2 mps 761 mmHg 62%
    21:00 +9°C° 0 mm 2 mps 761 mmHg 64%
    22:00 +9°C° 0 mm 2 mps 761 mmHg 66%
    23:00 +8°C° 0 mm 2 mps 762 mmHg 68%

    24 April, Wednesday

    Time Temperature Precipitation Wind Pressure Humidity
    00:00 +8°C° 0 mm 2 mps 762 mmHg 68%
    01:00 +7°C° 0 mm 2 mps 762 mmHg 69%
    02:00 +7°C° 0 mm 2 mps 762 mmHg 70%
    03:00 +7°C° 0 mm 2 mps 762 mmHg 72%
    04:00 +6°C° 0 mm 2 mps 762 mmHg 73%
    05:00 +6°C° 0 mm 2 mps 762 mmHg 75%
    06:00 +7°C° 0 mm 3 mps 762 mmHg 69%
    07:00 +9°C° 0 mm 3 mps 762 mmHg 62%
    08:00 +11°C° 0 mm 3 mps 762 mmHg 56%
    09:00 +12°C° 0 mm 4 mps 762 mmHg 51%
    10:00 +14°C° 0 mm 5 mps 762 mmHg 46%
    11:00 +15°C° 0 mm 5 mps 762 mmHg 41%
    12:00 +16°C° 0 mm 5 mps 762 mmHg 40%
    13:00 +16°C° 0 mm 5 mps 761 mmHg 39%
    14:00 +17°C° 0 mm 5 mps 761 mmHg 39%
    15:00 +17°C° 0 mm 5 mps 761 mmHg 40%
    16:00 +16°C° 0 mm 5 mps 760 mmHg 41%
    17:00 +16°C° 0 mm 5 mps 760 mmHg 42%
    18:00 +14°C° 0 mm 4 mps 760 mmHg 49%
    19:00 +13°C° 0 mm 3 mps 760 mmHg 56%
    20:00 +12°C° 0 mm 2 mps 760 mmHg 62%
    21:00 +10°C° 0 mm 2 mps 760 mmHg 65%
    22:00 +10°C° 0 mm 2 mps 760 mmHg 67%
    23:00 +9°C° 0 mm 2 mps 760 mmHg 70%
    Show more